Petistraesk, Sweden

6:08 PM CEST on July 26, 2016 (GMT +0200)
Lycksele | | Change Station

Elev 702 ft 64.55 °N, 18.72 °E | Updated 18 minutes ago

Clear
Clear
75 °F
Feels Like 75 °F
N
7
Wind Variable Wind from SSE

Today
High -- | Low -- °F
--% Chance of Precip.
Yesterday
High -- | Low -- °F
Precip. -- in
Pressure 29.86 in
Visibility -9999.0 miles
Clouds
Dew Point 55 °F
Humidity 50%
Rainfall 0.00 in
Snow Depth Not available.
3:24 AM 10:08 PM
Waning Gibbous, 53% visible
METAR ESNL 261550Z 16006KT CAVOK 24/13 Q1011
Pressure 29.86 in
Visibility -9999.0 miles
Clouds
Dew Point 55 °F
Humidity 50%
Rainfall 0.00 in
Snow Depth Not available.
3:24 AM 10:08 PM
Waning Gibbous, 53% visible
METAR ESNL 261550Z 16006KT CAVOK 24/13 Q1011

10-Day Weather Forecast

×

Almanac

Astronomy

Jul. 26, 2016 Rise Set
Actual Time
Civil Twilight
Nautical Twilight
Astronomical Twilight
Moon
Length of Visible Light
Length of Day
Tomorrow will be .
, % of the Moon is Illuminated

Today's Extremes

Country Highs Country Lows

Community

WunderPhotos

Upload Photos

1,927,625 photos uploaded!

WunderBlog® & News

Nearby

Air Quality

  Air Quality AQ Index Pollutant
Not available.

Snow Depth

Station Depth Elevation

Earthquake Activity

City Distance Mag. Time & Date
Minimum magnitude displayed is 2.5.

Coastal Water Temperatures

Place Temperature

Stations

Nearby Weather Stations

Station Location Temp. Windchill Dew Point Humidity Wind Precip. Elev Updated Type